Candy Cane Dash — Results

Frederick, Maryland, United States

1st Place

Edwin Marroquin

5K

18:16

2nd Place

Rick Lane

5K

19:40

3rd Place

Dale Thomas

5K

20:29

# Bib Name Gender Gender Rank Age Group AG Rank Finish Time Pace
551 2788 Carolina Taylor Female 336 F1519 21 49:38 15:59 /mi
552 2782 Beth Sands Female 337 F4049 101 49:39 15:59 /mi
553 2565 Robert Schruefer Male 215 M6069 12 49:41 16:00 /mi
554 2392 B. Linnehan Male 216 M0110 29 49:44 16:01 /mi
555 2393 S. Linnehan Female 338 F0110 22 49:44 16:01 /mi
556 2391 John Linnehan Male 217 M4049 58 49:48 16:02 /mi
557 2155 Danielle Baker Female 339 F4049 102 49:48 16:02 /mi
558 2310 M. Brock Female 340 F0110 23 49:50 16:02 /mi
559 2311 S. Brock Female 341 F0110 24 49:52 16:03 /mi
560 2181 Arnette Hyson Female 342 F4049 103 50:14 16:10 /mi
561 2587 Marylou Baker Female 343 F4049 104 50:21 16:12 /mi
562 2309 Teresa Callison Female 344 F6069 25 50:22 16:13 /mi
563 2651 Brian Graziano Male 218 M4049 59 50:24 16:13 /mi
564 2616 Chinbat Borkhuu Male 219 M4049 60 50:27 16:14 /mi
565 2076 Danielle Kenny Female 345 F3039 71 50:35 16:17 /mi
566 2044 Cadence Bohn Female 346 F1519 22 50:42 16:19 /mi
567 2661 Hyun Kweon Female 347 F4049 105 50:45 16:20 /mi
568 2653 Michelle Quigley Female 348 F4049 106 51:11 16:28 /mi
569 2745 William Dewey Male 220 M3039 37 51:16 16:30 /mi
570 2158 Heidi Myers Female 349 F3039 72 51:32 16:35 /mi
571 2021 Duane Knepp Male 221 M4049 61 51:40 16:38 /mi
572 2348 Venkata Madduri Male 222 M4049 62 51:48 16:40 /mi
573 2340 David Edwards II Male 223 M4049 63 51:49 16:41 /mi
574 2574 Meredith Southers Female 350 F3039 73 52:09 16:47 /mi
575 2188 Beth Case Female 351 F5059 33 52:19 16:50 /mi
576 2814 Jennifer Nilan Female 352 F3039 74 52:20 16:51 /mi
577 2362 Wendy Rollison 2 52:20 16:51 /mi
578 2743 Richard Kreuzburg Male 224 M5059 14 52:21 16:51 /mi
579 2742 Samantha Kreuzburg Female 353 F5059 34 52:22 16:51 /mi
580 2320 Sarah Lustrea Female 354 F2029 32 52:28 16:53 /mi
581 2321 Laura White Female 355 F5059 35 52:29 16:53 /mi
582 2739 Katherine Sanchez Female 356 F1519 23 52:29 16:54 /mi
583 2068 Rosario Villegas Female 357 F3039 75 52:34 16:55 /mi
584 2567 Allie Young Female 358 F7099 5 52:37 16:56 /mi
585 2069 Diana Hernandez Female 359 F2029 33 52:38 16:56 /mi
586 2568 Gail Zeisser Female 360 F7099 6 52:38 16:56 /mi
587 2127 Catherine Le Female 361 F5059 36 52:40 16:57 /mi
588 2066 Jasmin G. Cervantes Female 362 F3039 76 52:40 16:57 /mi
589 2176 A. Hyson Female 363 F1114 31 52:50 17:00 /mi
590 2335 Mark Vierling Male 225 M5059 15 52:55 17:02 /mi
591 2337 Melissa Vierling Female 364 F4049 107 52:55 17:02 /mi
592 2619 Katie Clothier Female 365 F4049 108 53:05 17:05 /mi
593 2139 Merissa Hoffman Female 366 F3039 77 53:08 17:06 /mi
594 2187 Wilma Coros Female 367 F5059 37 53:15 17:08 /mi
595 2177 Mags Schneider Female 368 F4049 109 53:16 17:09 /mi
596 2366 Jon Poser Male 226 M3039 38 53:16 17:09 /mi
597 2756 Kellie Ganoung Female 369 F3039 78 53:22 17:11 /mi
598 2356 Katie Brigner Female 370 F3039 79 53:28 17:13 /mi
599 2357 Daryl Brigner Male 227 M4049 64 53:29 17:13 /mi
600 2755 Christine Shutt Female 371 F6069 26 53:30 17:13 /mi

Showing 551–600 of 687 results